Location: Potomac
(46.8816°N, 113.5795°W)
Time: 12:03:21
(UTC+00:00)

AO-91 - Pass Details

Date: 09 July 2022
Orbit: 450 x 797 km, 97.7° (Epoch: 12 August)

Event Time Altitude Azimuth Distance (km) Brightness Sun altitude
Rises 06:37:43 0° 10° (N) 2,473 ? -19.4°
Reaches altitude 10° 06:39:45 10° 8° (N) 1,594 ? -19.5°
Maximum altitude 06:43:06 66° 285° (WNW) 505 ? -19.6°
Enters shadow 06:43:43 52° 231° (SW) 576 ? -19.6°
